Location: Prairie Dale
(45.6972°N, 104.5033°W)
Time: 01:23:09
(UTC+00:00)

SEEDS - Pass Details

Date: 03 July 2022
Orbit: 580 x 597 km, 97.6° (Epoch: 17 August)

Event Time Altitude Azimuth Distance (km) Brightness Sun altitude
Rises 10:03:05 0° 31° (NNE) 2,812 ? -10.0°
Reaches altitude 10° 10:06:13 10° 57° (ENE) 1,904 ? -9.7°
Maximum altitude 10:08:25 14° 90° (E) 1,649 ? -9.4°
Drops below altitude 10° 10:10:37 10° 122° (ESE) 1,894 ? -9.2°
Sets 10:13:42 0° 148° (SSE) 2,787 ? -8.8°
